Weather History for Crestview, FL

Change the Weather History Date:

Saturday, February 16, 2013

  Actual Average Record
Temperature  
Mean Temperature 44 °F -  
Max Temperature 53 °F - - ()
Min Temperature 32 °F - - ()
Degree Days  
Heating Degree Days 22    
Moisture  
Dew Point 27 °F    
Average Humidity 49    
Maximum Humidity 77    
Minimum Humidity 24    
Precipitation  
Precipitation 0.00 in - - ()
Sea Level Pressure  
Sea Level Pressure 30.12 in    
Wind  
Wind Speed 11 mph (NW)    
Max Wind Speed 22 mph    
Max Gust Speed 31 mph    
Visibility 10 miles    
Events Rain    
T = Trace of Precipitation, MM = Missing Value Source: NWS Daily Summary

Daily Weather History Graph

Daily Weather History Graph

Search for Another Location

Airport:

Trip Planner

Search our weather history database for the weather conditions in past years. The results will help you decide how hot, cold, wet, or windy it might be!

Date:

Astronomy

Feb. 16, 2013 Rise Set
Actual Time 6:25 AM CST 5:35 PM CST
Civil Twilight 6:00 AM CST 5:59 PM CST
Nautical Twilight 5:32 AM CST 6:27 PM CST
Astronomical Twilight 5:04 AM CST 6:56 PM CST
Moon 10:08 AM CST (2/16) 11:59 PM CST (2/16)
Length of Visible Light 11h 58m
Length of Day
11h 09m
Waxing Crescent, 39% of the Moon is Illuminated
Feb 16
Waxing Crescent
Feb 17
First Quarter
Feb 25
Full
Mar 4
Last Quarter
Mar 11
New

Hourly Weather History & Observations

Time (CST) Temp. Windchill Dew Point Humidity Pressure Visibility Wind Dir Wind Speed Gust Speed Precip Events Conditions
12:58 AM 47.1 °F - 39.7 °F 76% 30.05 in 10.0 mi NW 8.1 mph - N/A   Clear
1:58 AM 46.6 °F - 37.9 °F 72% 30.04 in 10.0 mi NW 5.8 mph - N/A   Clear
2:58 AM 45.3 °F 42.3 °F 37.9 °F 75% 30.04 in 10.0 mi NW 5.8 mph - N/A   Clear
3:58 AM 44.6 °F 42.2 °F 37.9 °F 77% 30.04 in 10.0 mi NW 4.6 mph - N/A   Mostly Cloudy
4:58 AM 45.9 °F 40.8 °F 37.9 °F 74% 30.06 in 10.0 mi NW 10.4 mph - N/A   Overcast
5:58 AM 46.6 °F - 36.9 °F 69% 30.08 in 10.0 mi NW 13.8 mph 21.9 mph N/A   Mostly Cloudy
6:29 AM 46.4 °F 39.8 °F 32.0 °F 57% 30.11 in 10.0 mi NW 16.1 mph 27.6 mph N/A Rain Light Rain
6:47 AM 44.6 °F 39.2 °F 35.6 °F 71% 30.10 in 10.0 mi NNW 10.4 mph - N/A   Clear
6:58 AM 45.1 °F 40.8 °F 35.1 °F 68% 30.11 in 10.0 mi NW 8.1 mph - 0.00 in   Partly Cloudy
7:28 AM 46.4 °F - 33.8 °F 62% 30.09 in 10.0 mi Variable 2.3 mph - N/A Rain Light Rain
7:35 AM 46.4 °F 45.2 °F 35.6 °F 66% 30.10 in 10.0 mi NNW 3.5 mph - N/A Rain Light Rain
7:54 AM 45.7 °F 42.7 °F 35.8 °F 68% 30.12 in 10.0 mi NW 5.8 mph - 0.00 in   Overcast
8:55 AM 48.9 °F - 34.0 °F 56% 30.13 in 10.0 mi NW 15.0 mph - N/A   Scattered Clouds
9:55 AM 51.1 °F - 28.8 °F 42% 30.14 in 10.0 mi WNW 18.4 mph 27.6 mph N/A   Scattered Clouds
10:26 AM 51.8 °F - 26.6 °F 38% 30.13 in 10.0 mi NNW 16.1 mph 28.8 mph N/A   Clear
10:32 AM 51.8 °F - 26.6 °F 38% 30.14 in 10.0 mi WNW 17.3 mph 28.8 mph N/A   Clear
10:58 AM 52.9 °F - 25.0 °F 34% 30.13 in 10.0 mi NW 16.1 mph 26.5 mph N/A   Clear
11:24 AM 53.6 °F - 24.8 °F 33% 30.12 in 10.0 mi NNW 21.9 mph 25.3 mph N/A   Partly Cloudy
11:41 AM 53.6 °F - 24.8 °F 33% 30.12 in 10.0 mi WNW 19.6 mph 28.8 mph N/A   Partly Cloudy
11:58 AM 53.1 °F - 24.1 °F 32% 30.12 in 10.0 mi NW 19.6 mph 31.1 mph N/A   Partly Cloudy
12:58 PM 53.8 °F - 23.2 °F 30% 30.09 in 10.0 mi NW 20.7 mph 25.3 mph N/A   Partly Cloudy
1:12 PM 51.8 °F - 21.2 °F 30% 30.09 in 10.0 mi West 16.1 mph 26.5 mph N/A   Clear
1:49 PM 53.6 °F - 21.2 °F 28% 30.08 in 10.0 mi NNW 18.4 mph 27.6 mph N/A   Partly Cloudy
1:58 PM 52.9 °F - 20.1 °F 28% 30.09 in 10.0 mi NW 16.1 mph 29.9 mph N/A   Partly Cloudy
2:58 PM 52.3 °F - 17.4 °F 25% 30.09 in 10.0 mi NW 20.7 mph 29.9 mph N/A   Partly Cloudy
3:58 PM 49.5 °F - 15.3 °F 26% 30.10 in 10.0 mi NW 18.4 mph 27.6 mph N/A   Partly Cloudy
4:58 PM 49.5 °F - 13.8 °F 24% 30.12 in 10.0 mi NW 12.7 mph 20.7 mph N/A   Clear
5:58 PM 45.1 °F 40.3 °F 15.3 °F 30% 30.15 in 10.0 mi NW 9.2 mph - N/A   Clear
6:58 PM 42.1 °F 37.7 °F 17.2 °F 37% 30.18 in 10.0 mi NW 6.9 mph - N/A   Clear
7:58 PM 39.9 °F 36.7 °F 18.5 °F 42% 30.21 in 10.0 mi NNW 4.6 mph - N/A   Clear
8:58 PM 37.0 °F 31.6 °F 20.5 °F 51% 30.24 in 10.0 mi NW 6.9 mph - N/A   Clear
9:58 PM 34.7 °F 31.8 °F 19.9 °F 55% 30.26 in 10.0 mi NW 3.5 mph - N/A   Clear
10:58 PM 35.6 °F 29.9 °F 19.2 °F 51% 30.27 in 10.0 mi NW 6.9 mph - N/A   Clear
11:58 PM 32.9 °F 28.5 °F 19.0 °F 57% 30.27 in 10.0 mi NNW 4.6 mph - N/A   Clear